Powrót do katalogu

SL-12 R/B(2)

AktywnyMEO
NORAD 15702·ROCKET BODY·🇷🇺 Russia

Wystrzelony May 17, 1985 z Baikonur Cosmodrome

Loading…

Następne Przeloty (najbliższe 24 godziny)

TLE

ŚwieżeSource: Space-Track

Epoka: Sep 8, 2026, 10:31 UTC

1 15702U 85037F   26251.43852295  .00000032  00000-0  00000-0 0  9997
2 15702  64.9494  68.8326 0033387  23.4872 339.6765  2.13322234321654

Śledź SL-12 R/B(2) w czasie rzeczywistym z AllMySat

Download on the App Store